Voltar ao catálogo

COSMOS 1230

AtivoNavegaçãoLEO
NORAD 12109·PAYLOAD·🇷🇺 Russia

Lançado Dec 23, 1980 de Plesetsk Cosmodrome

Loading…

Próximas Passagens (próximas 24 horas)

TLE

AtualizadoSource: Space-Track

Época: Sep 14, 2026, 14:50 UTC

1 12109U 80102C   26257.61865566 -.00000012  00000-0  27261-4 0  9995
2 12109  73.9946 196.0265 0042090 248.4542 286.5654 12.57926759 99687

Acompanhe COSMOS 1230 em tempo real com AllMySat

Download on the App Store